{"data":{"norad_id":47517,"intl_designator":"2021-006DH","name":"ASTROCAST-0105","alt_names":[],"object_type":"PAYLOAD","status":"ACTIVE","operator":null,"country":"SWTZ","launch_date":"2021-01-24","launch_site_code":"AFETR","launch_vehicle":null,"mission":null,"orbit_class":"UNKNOWN","rcs_meters":null,"size_class":null,"mass_kg":null,"dimensions":null,"purposes":[],"wikipedia_slug":null,"has_3d_model":false,"image_url":null,"decayed_at":null,"tle_current":{"epoch":"2026-05-25T03:36:16.434144Z","epoch_age_seconds":58104,"freshness":"FRESH","line1":"1 47517U 21006DH  26145.15019021  .00343305  00000+0  14350-2 0  9992","line2":"2 47517  97.2062 208.5546 0007143 221.2583 138.8148 15.84735532297295","mean_motion":15.84735532,"eccentricity":0.0007143,"inclination_deg":97.2062,"raan_deg":208.5546,"arg_perigee_deg":221.2583,"mean_anomaly_deg":138.8148,"bstar":0.001435,"rev_number":29729,"period_min":90.866896773789,"perigee_km":312.28713179043,"apogee_km":321.85190382177,"semimajor_km":6695.2065178061,"source":"CELESTRAK","updated_at":"2026-05-25T13:37:56.474794Z"}}}